Location: Oberkirch
(48.5323°N, 8.0787°E)
Time: 17:25:24
(UTC+00:00)

USA 234 - Pass Details

Date: 08 November 2025
Orbit: 1100 x 1107 km, 123.0° (Epoch: 02 December)

Event Time Altitude Azimuth Distance (km) Brightness Sun altitude
Rises 03:48:28 0° 139° (SE) 3,916 6.7 -26.0°
Reaches altitude 10° 03:51:00 10° 143° (SE) 2,961 5.9 -25.6°
Maximum altitude 03:57:26 59° 222° (SW) 1,267 3.3 -24.6°
Enters shadow 03:58:53 49° 267° (W) 1,403 3.3 -24.3°
